Weather History for KLSB - March, 2014

Change the Weather History Date:

Sunday, March 23, 2014

  Actual Average Record
Temperature  
Mean Temperature 54 °F -  
Max Temperature 71 °F 70 °F 75 °F (2015)
Min Temperature 37 °F 32 °F 37 °F (2014)
Degree Days  
Heating Degree Days 11    
Growing Degree Days 4 (Base 50)    
Moisture  
Dew Point 17 °F    
Average Humidity 23    
Maximum Humidity 41    
Minimum Humidity 14    
Precipitation  
Precipitation 0.00 in - - ()
Sea Level Pressure  
Sea Level Pressure 30.11 in    
Wind  
Wind Speed 5 mph (SE)    
Max Wind Speed 9 mph    
Max Gust Speed -    
Visibility 10 miles    
Events      
Averages and records for this station are not official NWS values.
T = Trace of Precipitation, MM = Missing Value Source: NWS Daily Summary

Daily Weather History Graph

Daily Weather History Graph

Search for Another Location

Airport or City:

Trip Planner

Search our weather history database for the weather conditions in past years. The results will help you decide how hot, cold, wet, or windy it might be!

Date:

Astronomy

Mar. 23, 2014 Rise Set
Actual Time 7:14 AM MDT 7:28 PM MDT
Civil Twilight 6:50 AM MDT 7:53 PM MDT
Nautical Twilight 6:21 AM MDT 8:21 PM MDT
Astronomical Twilight 5:52 AM MDT 8:50 PM MDT
Moon 1:32 AM MDT (3/23) 12:15 PM MDT (3/23)
Length of Visible Light 13h 02m
Length of Day
12h 13m
Waning Gibbous, 54% of the Moon is Illuminated
Mar 23
Waning Gibbous
Mar 23
Last Quarter
Mar 30
New
Apr 7
First Quarter
Apr 15
Full

Hourly Weather History & Observations

Time (MDT) Temp. Windchill Dew Point Humidity Pressure Visibility Wind Dir Wind Speed Gust Speed Precip Events Conditions
12:15 AM 50.0 °F - 14.0 °F 24% 30.09 in 10.0 mi East 9.2 mph - N/A   Clear
12:35 AM 46.4 °F 45.2 °F 14.0 °F 27% 30.10 in 10.0 mi ESE 3.5 mph - N/A   Clear
12:55 AM 46.4 °F - 14.0 °F 27% 30.10 in 10.0 mi Calm Calm - N/A   Clear
1:15 AM 46.4 °F 44.3 °F 14.0 °F 27% 30.10 in 10.0 mi West 4.6 mph - N/A   Clear
1:35 AM 48.2 °F - 15.8 °F 27% 30.10 in 10.0 mi WNW 5.8 mph - N/A   Clear
1:55 AM 46.4 °F 42.4 °F 14.0 °F 27% 30.10 in 10.0 mi WSW 8.1 mph - N/A   Clear
2:15 AM 46.4 °F 41.9 °F 14.0 °F 27% 30.10 in 10.0 mi WSW 9.2 mph - N/A   Clear
2:35 AM 46.4 °F 42.9 °F 14.0 °F 27% 30.10 in 10.0 mi WSW 6.9 mph - N/A   Clear
2:55 AM 44.6 °F 43.1 °F 14.0 °F 29% 30.11 in 10.0 mi East 3.5 mph - N/A   Clear
3:15 AM 42.8 °F - 15.8 °F 34% 30.11 in 10.0 mi Calm Calm - N/A   Clear
3:35 AM 42.8 °F - 14.0 °F 31% 30.11 in 10.0 mi Calm Calm - N/A   Clear
3:55 AM 41.0 °F - 14.0 °F 33% 30.10 in 10.0 mi Calm Calm - N/A   Clear
4:15 AM 41.0 °F - 14.0 °F 33% 30.10 in 10.0 mi Calm Calm - N/A   Clear
4:35 AM 41.0 °F 39.0 °F 14.0 °F 33% 30.10 in 10.0 mi South 3.5 mph - N/A   Clear
4:55 AM 41.0 °F 39.0 °F 14.0 °F 33% 30.10 in 10.0 mi South 3.5 mph - N/A   Clear
5:15 AM 41.0 °F 39.0 °F 14.0 °F 33% 30.10 in 10.0 mi SSE 3.5 mph - N/A   Clear
5:35 AM 37.4 °F 34.9 °F 14.0 °F 38% 30.11 in 10.0 mi SE 3.5 mph - N/A   Clear
5:55 AM 37.4 °F 32.1 °F 14.0 °F 38% 30.11 in 10.0 mi South 6.9 mph - N/A   Clear
6:15 AM 39.2 °F 33.6 °F 14.0 °F 36% 30.12 in 10.0 mi SSE 8.1 mph - N/A   Clear
6:35 AM 37.4 °F 33.8 °F 14.0 °F 38% 30.12 in 10.0 mi SSE 4.6 mph - N/A   Clear
6:55 AM 37.4 °F - 15.8 °F 41% 30.14 in 10.0 mi Calm Calm - N/A   Clear
7:15 AM 37.4 °F 33.8 °F 14.0 °F 38% 30.14 in 10.0 mi SE 4.6 mph - N/A   Clear
7:35 AM 37.4 °F 32.8 °F 14.0 °F 38% 30.15 in 10.0 mi SE 5.8 mph - N/A   Clear
7:55 AM 41.0 °F 39.0 °F 14.0 °F 33% 30.16 in 10.0 mi SSE 3.5 mph - N/A   Clear
8:15 AM 42.8 °F 41.1 °F 15.8 °F 34% 30.16 in 10.0 mi SE 3.5 mph - N/A   Clear
8:35 AM 46.4 °F 45.2 °F 17.6 °F 32% 30.17 in 10.0 mi SE 3.5 mph - N/A   Clear
8:55 AM 50.0 °F - 17.6 °F 28% 30.17 in 10.0 mi SE 5.8 mph - N/A   Clear
9:15 AM 51.8 °F - 17.6 °F 26% 30.17 in 10.0 mi ESE 4.6 mph - N/A   Clear
9:35 AM 55.4 °F - 17.6 °F 23% 30.17 in 10.0 mi SE 4.6 mph - N/A   Clear
9:55 AM 55.4 °F - 17.6 °F 23% 30.18 in 10.0 mi SE 3.5 mph - N/A   Clear
10:15 AM 59.0 °F - 19.4 °F 22% 30.18 in 10.0 mi Calm Calm - N/A   Clear
10:35 AM 60.8 °F - 17.6 °F 19% 30.18 in 10.0 mi Calm Calm - N/A   Clear
10:55 AM 62.6 °F - 17.6 °F 18% 30.18 in 10.0 mi Calm Calm - N/A   Clear
11:15 AM 62.6 °F - 19.4 °F 19% 30.19 in 10.0 mi Calm Calm - N/A   Clear
11:35 AM 64.4 °F - 19.4 °F 18% 30.18 in 10.0 mi ESE 4.6 mph - N/A   Clear
11:55 AM 68.0 °F - 19.4 °F 16% 30.18 in 10.0 mi ENE 4.6 mph - N/A   Clear
12:15 PM 68.0 °F - 19.4 °F 16% 30.17 in 10.0 mi Calm Calm - N/A   Clear
12:35 PM 68.0 °F - 19.4 °F 16% 30.16 in 10.0 mi East 9.2 mph - N/A   Clear
12:55 PM 68.0 °F - 17.6 °F 15% 30.15 in 10.0 mi SSE 5.8 mph - N/A   Clear
1:15 PM 68.0 °F - 19.4 °F 16% 30.14 in 10.0 mi SE 6.9 mph - N/A   Clear
1:35 PM 69.8 °F - 19.4 °F 15% 30.13 in 10.0 mi SSE 5.8 mph - N/A   Clear
1:55 PM 69.8 °F - 19.4 °F 15% 30.12 in 10.0 mi NW 3.5 mph - N/A   Clear
2:15 PM 69.8 °F - 19.4 °F 15% 30.11 in 10.0 mi Calm Calm - N/A   Clear
2:35 PM 71.6 °F - 19.4 °F 14% 30.10 in 10.0 mi ENE 6.9 mph - N/A   Clear
2:55 PM 71.6 °F - 19.4 °F 14% 30.08 in 10.0 mi East 6.9 mph - N/A   Clear
3:15 PM 71.6 °F - 19.4 °F 14% 30.08 in 10.0 mi ESE 4.6 mph - N/A   Clear
3:35 PM 71.6 °F - 19.4 °F 14% 30.07 in 10.0 mi South 4.6 mph - N/A   Clear
3:55 PM 71.6 °F - 19.4 °F 14% 30.06 in 10.0 mi WSW 4.6 mph - N/A   Clear
4:15 PM 71.6 °F - 19.4 °F 14% 30.06 in 10.0 mi NNW 6.9 mph - N/A   Clear
4:35 PM 69.8 °F - 19.4 °F 15% 30.05 in 10.0 mi NW 4.6 mph - N/A   Clear
4:55 PM 69.8 °F - 19.4 °F 15% 30.05 in 10.0 mi NE 4.6 mph - N/A   Clear
5:15 PM 69.8 °F - 17.6 °F 14% 30.04 in 10.0 mi SSW 3.5 mph - N/A   Clear
5:35 PM 69.8 °F - 19.4 °F 15% 30.04 in 10.0 mi Calm Calm - N/A   Clear
5:55 PM 69.8 °F - 19.4 °F 15% 30.04 in 10.0 mi Calm Calm - N/A   Clear
6:15 PM 69.8 °F - 19.4 °F 15% 30.04 in 10.0 mi East 3.5 mph - N/A   Clear
6:35 PM 69.8 °F - 19.4 °F 15% 30.04 in 10.0 mi Calm Calm - N/A   Clear
6:55 PM 69.8 °F - 19.4 °F 15% 30.04 in 10.0 mi Calm Calm - N/A   Clear
7:15 PM 68.0 °F - 19.4 °F 16% 30.04 in 10.0 mi Calm Calm - N/A   Clear
7:35 PM 64.4 °F - 19.4 °F 18% 30.05 in 10.0 mi Calm Calm - N/A   Clear
7:55 PM 62.6 °F - 19.4 °F 19% 30.06 in 10.0 mi South 4.6 mph - N/A   Clear
8:15 PM 62.6 °F - 17.6 °F 18% 30.06 in 10.0 mi South 6.9 mph - N/A   Clear
8:35 PM 60.8 °F - 17.6 °F 19% 30.07 in 10.0 mi South 8.1 mph - N/A   Clear
8:55 PM 59.0 °F - 17.6 °F 20% 30.07 in 10.0 mi South 6.9 mph - N/A   Clear
9:15 PM 55.4 °F - 17.6 °F 23% 30.08 in 10.0 mi East 3.5 mph - N/A   Clear
9:35 PM 55.4 °F - 17.6 °F 23% 30.08 in 10.0 mi SE 3.5 mph - N/A   Clear
9:55 PM 53.6 °F - 17.6 °F 24% 30.08 in 10.0 mi SSE 6.9 mph - N/A   Clear
10:15 PM 55.4 °F - 17.6 °F 23% 30.09 in 10.0 mi SSE 6.9 mph - N/A   Clear
10:35 PM 55.4 °F - 17.6 °F 23% 30.10 in 10.0 mi SSE 9.2 mph - N/A   Clear
10:55 PM 53.6 °F - 17.6 °F 24% 30.10 in 10.0 mi SSE 8.1 mph - N/A   Clear
11:15 PM 53.6 °F - 17.6 °F 24% 30.10 in 10.0 mi SSE 8.1 mph - N/A   Clear
11:35 PM 53.6 °F - 19.4 °F 26% 30.10 in 10.0 mi SE 8.1 mph - N/A   Clear
11:55 PM 53.6 °F - 19.4 °F 26% 30.10 in 10.0 mi SE 6.9 mph - N/A   Clear